Location: Eastchester
(40.8876°N, 73.8329°W)
Time: 11:13:52
(UTC+00:00)

Daily predictions for brighter satellites

Satellite Brightness Start Highest point End
(mag) Time Altitude Azimuth Time Altitude Azimuth Time Altitude Azimuth
Cosmos 2151 Rocket 4.4 23:11:32 10° SSW 23:15:51 58° W 23:20:12 10° N
Cosmos 1441 Rocket 3.1 23:15:03 10° S 23:18:50 80° E 23:22:35 10° NNE
Ariane Rocket 3.5 23:16:06 10° SE 23:20:45 38° ENE 23:25:24 10° N
Nadezhda 1 Rocket 3.9 23:16:44 10° S 23:22:44 71° E 23:28:49 10° NNE
Cosmos 1939 Rocket 3.4 23:21:44 10° SE 23:25:15 35° ENE 23:28:48 10° N
ASTEX 1 4.2 23:24:56 10° NNE 23:29:11 29° E 23:33:25 10° SSE
Cosmos 1544 3.2 23:26:00 10° S 23:29:35 79° W 23:33:12 10° N
Cosmos 2327 Rocket 4.4 23:23:32 10° N 23:29:46 80° E 23:35:51 10° S
NOSS 3-4 (A) 3.9 23:22:41 10° NNW 23:29:48 79° NE 23:37:35 10° SE
NOSS 3-4 (C) 3.9 23:22:47 10° NNW 23:29:54 78° NE 23:37:40 10° SE
CSL-04 Rocket 3.8 23:25:44 10° SSE 23:31:15 85° WSW 23:36:51 10° NNW
Aureole 1 Rocket 4.0 23:28:07 10° NNW 23:32:28 47° WSW 23:35:52 10° S
DMSP B5D1-3 4.5 23:28:01 10° NNE 23:33:07 67° ESE 23:38:10 10° S
Orbus 7S? 4.1 23:29:31 10° SSW 23:33:15 72° SE 23:41:50 10° NE
Cosmos 407 Rocket 3.7 23:28:33 10° N 23:33:31 47° ENE 23:38:26 10° SE
USA 116 3.9 23:30:26 10° N 23:34:04 65° WNW 23:37:19 10° SSW
Cosmos 2056 Rocket 3.7 23:31:21 10° S 23:36:38 56° ESE 23:41:55 10° NNE
Cosmos 2237 Rocket 2.3 23:36:25 10° NNW 23:42:05 60° ENE 23:47:41 10° SE
DELTA 2 R/B (1) 3.7 23:36:46 10° WSW 23:42:21 71° S 23:47:07 15° E
Okean 1 Rocket 3.4 23:38:49 10° SSW 23:43:07 69° W 23:47:29 10° N
Cosmos 1025 Rocket 4.5 23:40:21 10° NNW 23:44:22 41° W 23:48:23 10° SSW
Cosmos 2333 Rocket 3.2 23:40:05 10° NW 23:45:33 49° WSW 23:51:03 10° S
Cosmos 1140 Rocket 3.9 23:41:16 10° N 23:46:08 41° ENE 23:50:47 11° SE
Cosmos 1624 Rocket 3.9 23:42:28 10° S 23:47:38 72° ESE 23:52:49 10° NNE
Meteor 1-15 Rocket 4.3 23:44:29 10° S 23:50:10 64° E 23:55:59 10° NNE
Cosmos 1707 2.7 23:48:30 10° N 23:52:26 87° ENE 23:56:21 10° S
Cosmos 1980 3.6 23:46:53 10° NNW 23:52:34 78° ENE 23:58:12 10° SSE
